Stations météo

réclame
Mon MeteoGroup
Hemavan A, Suède (2101): Température de l'air & dewpoint: 13.11.2017 18:00:00 - 19.11.2017 18:00:00 (CET)Hemavan A, Suède (2101): Vitesse du vent: 13.11.2017 18:00:00 - 19.11.2017 18:00:00 (CET)Hemavan A, Suède (2101): Direction du vent: 13.11.2017 18:00:00 - 19.11.2017 18:00:00 (CET)Hemavan A, Suède (2101): reduced air pressure: 13.11.2017 18:00:00 - 19.11.2017 18:00:00 (CET)Hemavan A, Suède (2101): visibility: 13.11.2017 18:00:00 - 19.11.2017 18:00:00 (CET)
Date & Time tt [°C] td [°C] ff [km/h] ff [knt] dd ppp [hPa] vv [km]
19.11.2017 18:00:00 -19,4 -21,1 0 0 N 1011,9 45
19.11.2017 17:00:00 -19,2 -21,2 0 0 N 1011,5 10
19.11.2017 16:00:00 -19,7 -21,8 0 0 N 1011,3 0,2
19.11.2017 15:00:00 -18,7 -20,7 0 0 N 1010,7 0,4
19.11.2017 14:00:00 -17,8 -19,8 0 0 N 1010,4 0,3
19.11.2017 13:00:00 -16,5 -18,2 0 0 N 1010,0 0,5
19.11.2017 12:00:00 -15,5 -17,3 0 0 N 1009,6 0,4
19.11.2017 11:00:00 -15,4 -16,9 0 0 N 1009,4 0,1
19.11.2017 10:00:00 -16,3 -18,0 0 0 N 1008,7 35
19.11.2017 09:00:00 -15,4 -16,9 0 0 N 1008,1 0,1
19.11.2017 08:00:00 -15,3 -16,8 0 0 N 1007,5 45
19.11.2017 07:00:00 -13,1 -14,3 0 0 N 1006,7 50
19.11.2017 06:00:00 -11,0 -12,0 0 0 N 1005,9 28
19.11.2017 05:00:00 -10,7 -11,7 4 2 SSE 1005,6 35
19.11.2017 04:00:00 -10,6 -11,6 0 0 N 1005,1 15
19.11.2017 03:00:00 -10,6 -11,6 4 2 NNW 1004,6 30
19.11.2017 02:00:00 -11,2 -12,2 0 0 N 1004,4 45
19.11.2017 01:00:00 -10,1 -10,7 0 0 N 1003,7 45
19.11.2017 00:00:00 -9,7 -10,3 4 2 SSE 1003,3 40
18.11.2017 23:00:00 -7,9 -8,8 4 2 ESE 1002,5 15
18.11.2017 22:00:00 -6,3 -8,6 7 4 SE 1001,7 10
18.11.2017 21:00:00 -5,9 -7,4 0 0 N 1000,9 45
18.11.2017 20:00:00 -4,5 -6,6 7 4 NNW 1000,1 50
18.11.2017 19:00:00 -4,5 -7,1 11 6 S 999,8 45
18.11.2017 18:00:00 -4,2 -7,0 7 4 SE 999,2 50
18.11.2017 17:00:00 -5,2 -6,4 4 2 NNE 998,9 40
18.11.2017 16:00:00 -4,4 -5,9 0 0 N 998,4 45
18.11.2017 15:00:00 -4,7 -6,2 0 0 N 997,8 50
18.11.2017 14:00:00 -4,5 -5,6 4 2 ENE 997,1 40
18.11.2017 13:00:00 -3,8 -5,9 4 2 E 996,8 35
18.11.2017 12:00:00 -4,3 -5,5 7 4 ESE 996,5 5
18.11.2017 11:00:00 -4,4 -5,4 7 4 SE 996,3 2,1
18.11.2017 10:00:00 -4,2 -5,3 4 2 E 995,9 2,6
18.11.2017 09:00:00 -4,4 -4,9 11 6 SE 995,3 1,6
18.11.2017 08:00:00 -4,5 -5,3 11 6 ESE 994,8 1,0
18.11.2017 07:00:00 -4,6 -5,6 7 4 ESE 994,3 1,6
18.11.2017 06:00:00 -4,7 -5,7 11 6 ESE 994,1 6
18.11.2017 05:00:00 -4,5 -5,5 14 8 ESE 993,8 4,7
18.11.2017 04:00:00 -4,5 -5,5 7 4 SE 993,8 6
18.11.2017 03:00:00 -4,7 -5,5 7 4 ESE 993,6 3,2
18.11.2017 02:00:00 -4,9 -5,7 7 4 S 993,6 1,2
18.11.2017 01:00:00 -4,7 -5,5 7 4 SE 993,3 4,5
18.11.2017 00:00:00 -5,2 -6,2 11 6 SSE 993,2 23
17.11.2017 23:00:00 -5,5 -6,3 4 2 S 993,1 3,5
17.11.2017 22:00:00 -5,5 -6,0 7 4 S 993,0 1,8
17.11.2017 21:00:00 -7,4 -8,1 4 2 SSW 993,1 17
17.11.2017 20:00:00 -6,1 -6,6 4 2 SE 992,6 40
17.11.2017 19:00:00 -6,3 -6,8 11 6 SSE 992,8 40
17.11.2017 18:00:00 -3,5 -4,5 7 4 SSE 992,7 40
17.11.2017 17:00:00 -3,9 -4,7 4 2 S 992,8 50
17.11.2017 16:00:00 -4,2 -5,0 4 2 SSW 992,8 50
17.11.2017 15:00:00 -3,7 -4,5 4 2 WNW 992,9 50
17.11.2017 14:00:00 -3,5 -4,8 4 2 WSW 993,1 40
17.11.2017 13:00:00 -3,6 -4,7 0 0 N 993,1 4,1
17.11.2017 12:00:00 -3,8 -5,3 0 0 N 993,4 40
17.11.2017 11:00:00 -4,1 -5,3 7 4 ESE 993,6 40
17.11.2017 10:00:00 -4,5 -5,6 7 4 SE 993,5 30
17.11.2017 09:00:00 -4,5 -5,5 7 4 SE 993,8 20
17.11.2017 08:00:00 -4,7 -5,5 4 2 SE 993,9 5
17.11.2017 07:00:00 -4,3 -5,1 7 4 SE 994,1 1,5
17.11.2017 06:00:00 -4,1 -5,1 7 4 SE 994,5 5
17.11.2017 05:00:00 -3,9 -5,0 11 6 SE 994,8 1,8
17.11.2017 04:00:00 -3,8 -4,8 7 4 SE 995,3 3,0
17.11.2017 03:00:00 -3,6 -4,6 11 6 SE 996,1 2,3
17.11.2017 02:00:00 -3,3 -4,4 4 2 E 996,5 2,6
17.11.2017 01:00:00 -2,9 -4,6 14 8 S 996,7 3,9
17.11.2017 00:00:00 -2,8 -4,8 18 10 S 997,3 4,5
16.11.2017 23:00:00 -2,4 -4,7 18 10 S 997,9 4,0
16.11.2017 22:00:00 -2,0 -5,2 18 10 S 998,6 50
16.11.2017 21:00:00 -2,5 -5,3 7 4 SE 1000,2 50
16.11.2017 20:00:00 -4,5 -6,6 4 2 N 1001,7 50
16.11.2017 19:00:00 -3,1 -5,7 7 4 SSE 1001,9 50
16.11.2017 18:00:00 -3,7 -5,9 14 8 SE 1003,0 50
16.11.2017 17:00:00 -3,3 -5,2 7 4 SE 1004,2 50
16.11.2017 16:00:00 -5,2 -6,0 4 2 ESE 1005,5 45
16.11.2017 15:00:00 -3,5 -4,8 11 6 ESE 1006,7 50
16.11.2017 14:00:00 -3,6 -4,1 0 0 N 1007,9 35
16.11.2017 13:00:00 -2,3 -3,6 4 2 SSE 1008,8 45
16.11.2017 12:00:00 -1,8 -3,4 11 6 SSE 1009,2 45
16.11.2017 11:00:00 -0,9 -2,6 4 2 SW 1009,4 35
16.11.2017 10:00:00 -1,4 -3,0 4 2 ESE 1009,6 50
16.11.2017 09:00:00 -2,3 -4,0 4 2 SSE 1009,8 50
16.11.2017 08:00:00 -1,9 -2,5 7 4 SE 1009,4 45
16.11.2017 07:00:00 -1,7 -3,6 11 6 WNW 1009,2 50
16.11.2017 06:00:00 -0,5 -2,9 18 10 NW 1008,9 50
16.11.2017 05:00:00 -0,6 -2,0 11 6 NNW 1009,0 30
16.11.2017 04:00:00 -0,3 -1,4 11 6 NW 1008,7 19
16.11.2017 03:00:00 -1,6 -2,7 14 8 NW 1008,7 50
16.11.2017 02:00:00 -0,8 -0,9 14 8 NW 1008,0 50
16.11.2017 01:00:00 -2,0 -2,1 0 0 N 1007,4 6
16.11.2017 00:00:00 -2,8 -2,9 4 2 SW 1006,8 50
15.11.2017 23:00:00 -8,5 -9,6 0 0 N 1006,6 50
15.11.2017 22:00:00 -8,8 -9,9 0 0 N 1005,5 50
15.11.2017 21:00:00 -7,6 -8,3 4 2 ENE 1004,1 50
15.11.2017 20:00:00 -7,3 -8,2 0 0 N 1002,7 25
15.11.2017 19:00:00 -6,0 -6,5 0 0 N 1001,5 1,3
15.11.2017 18:00:00 -6,0 -6,5 7 4 SE 1000,7 2,0
15.11.2017 17:00:00 -6,7 -7,5 11 6 SE 1000,7 2,9
15.11.2017 16:00:00 -7,2 -7,9 7 4 SSE 1001,2 15
15.11.2017 15:00:00 -7,5 -8,4 7 4 SSE 1001,5 35
15.11.2017 14:00:00 -7,7 -8,6 7 4 SSE 1001,8 15
15.11.2017 13:00:00 -7,6 -8,5 4 2 SSW 1001,5 29
15.11.2017 12:00:00 -8,5 -9,6 4 2 SE 1001,7 35
15.11.2017 11:00:00 -9,2 -10,3 4 2 S 1002,0 6
15.11.2017 10:00:00 -9,7 -10,8 4 2 SE 1002,0 1,1
15.11.2017 09:00:00 -10,8 -11,8 0 0 N 1002,0 50
15.11.2017 08:00:00 -10,6 -11,6 0 0 N 1002,4 2,1
15.11.2017 07:00:00 -11,2 -12,5 4 2 S 1002,7 0,4
15.11.2017 06:00:00 -9,9 -11,0 0 0 N 1002,7 0,2
15.11.2017 05:00:00 -9,5 -10,6 0 0 N 1002,8 0,4
15.11.2017 04:00:00 -9,9 -11,0 4 2 S 1003,0 6
15.11.2017 03:00:00 -10,7 -11,7 4 2 W 1003,7 40
15.11.2017 02:00:00 -9,6 -10,7 0 0 N 1003,7 0,6
15.11.2017 01:00:00 -9,5 -10,6 4 2 SSW 1003,9 4,3
15.11.2017 00:00:00 -9,3 -10,4 4 2 S 1003,9 45
14.11.2017 23:00:00 -8,3 -9,2 4 2 E 1004,1 3,0
14.11.2017 22:00:00 -7,6 -8,5 4 2 S 1004,2 4,2
14.11.2017 21:00:00 -7,0 -7,8 0 0 N 1003,8 0,3
14.11.2017 20:00:00 -6,7 -7,5 4 2 NNW 1003,7 0,9
14.11.2017 19:00:00 -6,2 -6,7 0 0 N 1003,7 0,8
14.11.2017 18:00:00 -6,6 -7,4 4 2 N 1003,5 50
14.11.2017 17:00:00 -6,5 -7,3 4 2 NNW 1003,3 1,6
14.11.2017 16:00:00 -6,1 -6,6 4 2 NNW 1003,2 1,2
14.11.2017 15:00:00 -7,5 -8,4 4 2 N 1003,5 50
14.11.2017 14:00:00 -6,6 -7,3 4 2 NNE 1003,2 50
14.11.2017 13:00:00 -5,8 -6,3 4 2 S 1003,2 50
14.11.2017 12:00:00 -6,6 -7,4 4 2 E 1003,3 50
14.11.2017 11:00:00 -7,0 -7,7 4 2 WNW 1003,4 50
14.11.2017 10:00:00 -7,0 -7,7 0 0 N 1003,6 45
14.11.2017 09:00:00 -7,5 -8,2 4 2 NNW 1004,0 50
14.11.2017 08:00:00 -6,7 -7,4 0 0 N 1003,9 45
14.11.2017 07:00:00 -6,2 -6,7 4 2 NNW 1003,9 50
14.11.2017 06:00:00 -3,9 -4,3 7 4 W 1003,8 50
14.11.2017 05:00:00 -4,1 -4,5 0 0 N 1004,2 50
14.11.2017 04:00:00 -3,0 -3,5 4 2 NNW 1004,3 50
14.11.2017 03:00:00 -2,4 -3,0 4 2 NNE 1004,7 50
14.11.2017 02:00:00 -1,5 -3,1 4 2 NNW 1004,7 50
14.11.2017 01:00:00 -1,7 -2,8 4 2 N 1005,0 50
14.11.2017 00:00:00 -1,0 -2,1 7 4 N 1004,8 50
13.11.2017 23:00:00 -0,4 -1,8 7 4 NNE 1005,1 50
13.11.2017 22:00:00 -0,3 -2,4 7 4 N 1005,1 50
13.11.2017 21:00:00 -0,6 -2,3 4 2 N 1005,4 50
13.11.2017 20:00:00 -0,6 -2,8 7 4 N 1005,5 50
13.11.2017 19:00:00 -0,8 -3,0 11 6 WNW 1005,2 50
13.11.2017 18:00:00 0,2 -2,8 11 6 NNW 1004,9 50

tt = Température de l'air
td = dewpoint
ff = Vitesse du vent
dd = Direction du vent
ppp = reduced air pressure
vv = visibility

stations d'obs. à proximité